Погода в Никольском

Россия / Амурская область     50°55′26″N   128°17′25″E
темп.,
°C
ветер,
м/с
пор.,
м/с
влажн.,
%
обл.,
%
осадки,
мм/ч
давл.,
гПа
погр.,
м
18 апреля, вс
вс1800:00+4ююз47705 0.0 1012110
03:00+2ююз36760 0.0 101192
06:00+2ю47720 0.0 1011127
09:00+8ю57500 0.0 1010444
12:00+12ю67380 0.0 10081063
15:00+14ю66340 0.0 10061389
18:00+14ююв56374 0.0 10041015
21:00+9ююв410570 0.0 1005197
19 апреля, пн
пн1900:00+7ююв486991 0.0 1004123
03:00+5ю48725 0.0 1003127
06:00+5ссз914745 0.0 1004602
09:00+2сз10135485 0.0 1008896
12:00+5сз1114300 0.3 10101535
15:00+6сз1215200 0.3 10102174
18:00+4сз1016220 0.0 10122286
21:000ссз1019300 0.0 10141945
20 апреля, вт
вт2000:00−2сз1018320 0.0 10141410
03:00−3сз1018320 0.0 10131258
06:00−3сз1018330 0.0 10141128
09:00+1сз1014240 0.0 10151166
12:00+6сз912140 0.0 10141448
15:00+10сз811117 0.0 10141570
18:00+11сз47155 0.0 10141244
21:00+6вюв22220 0.0 101511
21 апреля, ср
ср2100:00+4юв45279 0.0 101566
03:00+2юв45400 0.0 101572
06:00+2ююв36545 0.0 1015103
09:00+10ююв4537100 0.0 1015333
12:00+17ююз5626100 0.0 1014968
15:00+21ю68210 0.0 10121627
18:00+20ю710255 0.0 1012740
21:00+14ююв41240100 0.0 1014189
22 апреля, чт
чт2200:00+12юв51446100 0.0 1016304
03:00+11ююв5144513 0.0 1016274
06:00+11ююв819420 0.0 1017481
09:00+14ююв1017345 0.0 1018733
12:00+19ю11132694 0.0 10181143
15:00+23ю91219100 0.0 10171980
18:00+20ююз61225100 0.0 1018506
21:00+16ююв5114091 0.0 1020218